Home > Weather > Ittoqqortoormiit > Past weeks

Flag for Greenland Past Weather in Ittoqqortoormiit, Greenland — Yesterday and Last 2 Weeks

Now
44 °F

Overcast.


Feels Like: 37 °F
Forecast: 36 / 39 °F
Wind: 15 mph from Northeast

Location: Scoresbysund

Current Time: Jun 27, 2016 at 12:32:17 AM

Latest Report: Jun 26, 2016 at 11:00 PM


Visibility: 22 mi

Pressure: 29.73 "Hg

Humidity: 80%

Dew Point: 38 °F

Location of IttoqqortoormiitLocation

Past Weather in Ittoqqortoormiit — Graph

°F

Ittoqqortoormiit Temperature Yesterday

Maximum temperature yesterday: 45 °F (at 1:00 AM)
Minimum temperature yesterday: 34 °F (at 6:00 AM)
Average temperature yesterday: 39 °F

High & Low Weather Summary for the Past Weeks

 TemperatureHumidityPressure
High55 °F (Jun 23, 9:00 PM)100% (Jun 15, 12:00 AM)30.09 "Hg (Jun 15, 12:00 AM)
Low31 °F (Jun 14, 6:00 AM)38% (Jun 23, 8:00 PM)29.55 "Hg (Jun 24, 6:00 PM)
Average40 °F80%29.83 "Hg
* Reported Jun 11 10:00 PM — Jun 26 10:00 PM, Ittoqqortoormiit, Weather by CustomWeather, © 2016

Note: Actual official high and low records may vary slightly from our data, if they occured in-between our weather recording intervals... More about our weather records

Advertising

Ittoqqortoormiit Weather History for the Previous 24 Hours

Scroll right to see more
 ConditionsComfort  
Time TempWeatherWind HumidityBarometerVisibility
10:00 PM
Sun, Jun 26
44 °FOvercast.8 mph78%29.74 "Hg31 mi
9:00 PM45 °FPassing clouds.16 mph68%29.70 "Hg31 mi
8:00 PM42 °FSunny.8 mph78%29.74 "Hg31 mi
7:00 PM40 °FPassing clouds.6 mph85%29.74 "Hg25 mi
6:00 PM40 °FPassing clouds.5 mph85%29.74 "Hg22 mi
3:00 PM39 °FSunny.5 mph86%29.76 "Hg22 mi
2:00 PM40 °FOvercast.3 mph83%29.77 "Hg22 mi
1:00 PM38 °FScattered clouds.2 mph87%29.77 "Hg25 mi
12:00 PM37 °FLow clouds.3 mph89%29.79 "Hg25 mi
11:00 AM37 °FSunny.5 mph92%29.78 "Hg28 mi
10:00 AM37 °FPassing clouds.3 mph91%29.79 "Hg28 mi
9:00 AM36 °FOvercast.2 mph95%29.78 "Hg28 mi
8:00 AM35 °FLow clouds.2 mph100%29.78 "Hg17 mi
7:00 AM35 °FLow clouds.2 mph100%29.78 "Hg3 mi
6:00 AM34 °FFog.2 mph100%29.77 "Hg1 mi
5:00 AM35 °FLow clouds.2 mph100%29.76 "HgN/A
4:00 AM36 °FRain showers. Low clouds.1 mph99%29.76 "Hg1 mi
3:00 AM41 °FFog.3 mph97%29.75 "Hg2 mi
2:00 AM43 °FFog.5 mph95%29.75 "Hg3 mi
1:00 AM45 °FLow clouds.6 mph89%29.75 "Hg31 mi
12:00 AM43 °FOvercast.1 mph82%29.75 "Hg31 mi
Weather by CustomWeather, © 2016

See weather overviewHow to use our weather pages